Temperature
7 8 8 8 8 9 9 9 9 9 9 10 10 11 11 11 11 12 12 12 12 12 12 12 12 13 13 13 13 13 13 13 13 13 14 14 14 14 14 14 14 14 14 14
8 8 8 8 8 8 8 8 9 9 9 10 10 10 11 12 12 12 12 12 12 11 12 12 12 12 13 13 13 13 13 13 13 13 14 14 14 14 14 14 14 14 14 14
7 8 7 8 8 8 8 8 8 8 9 10 10 11 11 12 11 11 11 11 11 11 11 11 12 12 12 13 13 13 13 13 13 13 13 13 13 13 13 14 14 14 14 14
7 7 7 8 8 8 8 8 8 8 8 9 10 10 11 12 12 12 12 11 11 11 11 11 12 12 12 12 13 13 13 13 13 13 13 13 13 13 14 14 14 14 14 14
7 7 7 7 8 8 8 8 8 8 8 9 10 10 11 11 11 12 12 11 11 11 11 11 11 12 12 12 12 12 13 13 13 13 13 13 13 13 13 13 13 13 13 13
7 7 7 7 8 8 8 8 8 8 9 9 9 10 11 11 11 11 12 11 11 10 10 10 11 11 12 12 12 12 12 13 13 13 13 13 13 13 13 13 13 13 13 13
7 7 7 7 8 8 8 8 9 9 9 10 9 10 10 10 10 10 11 10 10 10 10 10 10 11 11 12 12 12 12 12 13 12 12 13 13 13 13 13 13 13 13 13
7 7 7 7 7 7 7 8 8 9 10 10 9 10 10 10 10 9 9 9 9 9 10 10 10 10 11 11 12 12 12 12 13 13 12 12 13 12 12 13 13 13 13 13
7 7 7 7 7 7 7 7 7 8 8 9 10 10 11 10 10 10 9 9 9 9 9 10 10 10 10 11 11 12 12 12 12 12 12 12 12 12 12 12 12 13 13 13
6 6 7 7 7 7 7 7 7 8 8 9 10 10 10 9 9 9 9 8 8 8 8 9 9 10 10 11 11 11 11 12 12 12 12 12 12 12 12 12 12 12 12 12
6 6 7 7 7 7 7 7 7 7 8 9 9 10 9 8 8 8 8 7 7 7 7 8 9 9 10 10 10 11 11 11 11 12 12 12 12 12 12 12 12 12 12 12
6 6 6 6 6 6 6 7 7 7 7 8 9 9 8 8 7 7 7 6 6 6 7 7 8 8 9 9 10 10 10 11 11 11 11 12 12 12 12 12 12 12 12 12
6 6 7 7 7 6 6 6 6 6 6 7 8 8 8 8 8 7 6 6 6 6 6 6 7 8 8 9 9 9 10 10 11 11 11 11 11 11 11 11 11 11 11 11
6 6 6 7 7 6 6 6 6 6 7 7 8 8 7 7 7 6 6 6 6 5 6 6 6 7 7 8 8 9 9 9 10 10 10 10 10 10 10 10 11 11 11 11
6 6 5 6 6 6 6 6 6 6 6 7 7 7 7 6 6 6 5 5 5 5 5 5 6 6 6 7 7 8 8 9 9 9 10 10 10 10 10 10 10 10 10 10
5 5 5 5 5 5 5 6 6 6 6 6 6 6 6 5 5 5 5 4 4 4 4 5 5 6 6 6 7 7 8 8 8 8 9 9 9 9 9 9 9 9 9 9
5 5 5 6 5 6 6 6 6 6 6 6 6 6 6 5 5 4 4 4 4 4 4 4 5 5 5 6 6 7 7 7 7 8 8 8 8 8 8 8 8 8 8 8
5 5 5 6 6 6 7 5 5 5 5 5 5 5 5 5 4 3 3 3 3 3 3 4 4 4 5 5 6 6 6 7 7 7 7 7 7 7 7 7 7 7 7 7
4 5 5 5 6 7 6 5 5 5 5 5 5 5 4 3 4 4 3 2 2 2 3 3 4 4 4 5 5 6 6 6 6 6 6 7 7 7 7 7 7 7 7 7
3 4 5 5 6 7 7 5 4 5 5 4 4 4 3 3 5 5 2 2 2 2 3 3 3 4 4 4 4 5 5 5 6 6 6 6 6 6 6 6 6 6 6 6
3 4 4 5 5 7 6 4 4 5 6 4 3 3 2 3 3 2 2 1 1 2 2 2 3 3 3 4 4 4 4 5 5 5 5 5 5 5 5 5 5 5 5 5
5 5 4 5 5 6 4 4 5 5 3 3 2 2 1 1 1 1 1 1 1 1 2 2 2 2 3 3 3 4 4 4 4 4 4 4 5 4 4 4 4 4 4 4
4 5 6 6 6 5 3 4 3 3 2 2 2 1 1 1 1 0 0 1 1 1 1 1 1 2 2 2 3 3 3 3 4 4 4 4 4 4 4 4 4 3 3 3
3 2 3 4 4 3 3 2 2 2 2 1 1 1 1 0 0 -0 -0 0 0 0 1 1 1 1 1 2 2 2 2 3 3 3 3 3 3 3 3 3 3 3 3 3
4 2 3 3 4 2 2 2 2 2 1 1 1 1 0 -0 -0 -1 -1 -0 -0 0 0 0 0 0 1 1 1 1 2 2 2 2 2 2 2 2 3 2 2 2 3 3
2 2 3 5 5 4 3 3 2 1 1 1 0 0 -0 -1 -1 -1 -1 -1 -1 -0 -0 -0 -0 0 0 0 0 1 1 1 1 2 2 2 2 2 2 2 2 2 2 2
Wind_Speed
0 0 1 3 4 4 4 4 4 4 3 3 6 8 8 6 6 7 7 7 7 8 7 5 5 5 7 10 10 10 10 11 10 9 8 9 10 9 9 10 13 14 14 14
1 1 4 3 2 2 2 3 4 3 2 3 5 8 7 5 5 5 5 6 7 7 5 4 5 5 7 8 10 11 11 11 10 9 9 7 8 8 9 8 11 14 14 14
1 2 2 0 0 0 2 2 3 3 4 3 4 5 4 4 4 3 4 4 5 5 5 4 4 5 6 7 9 10 12 12 12 11 8 6 6 6 7 9 9 11 13 14
1 2 1 0 1 1 2 2 3 3 3 1 3 3 3 3 3 3 3 3 4 3 3 4 4 5 6 7 6 9 10 11 12 11 10 11 10 10 10 9 9 11 13 13
1 2 1 1 2 2 2 3 3 3 2 1 2 2 2 1 2 4 4 4 4 3 2 3 4 5 5 6 6 7 8 9 10 11 12 12 10 9 7 8 10 11 10 12
1 1 2 3 3 2 3 2 1 1 1 1 2 2 1 1 3 5 6 5 3 2 2 1 2 3 3 5 6 6 8 8 9 11 12 13 12 11 10 11 11 10 9 9
1 1 1 2 2 0 2 2 1 1 1 0 1 1 1 4 6 7 7 6 4 3 1 1 1 2 3 4 5 6 7 8 8 11 12 13 13 13 14 13 13 11 9 9
1 1 2 2 2 2 1 2 2 1 1 1 0 1 1 6 7 7 7 6 5 4 3 2 1 2 3 4 4 6 7 7 7 8 10 11 12 10 10 12 11 11 10 10
0 1 2 2 2 2 1 0 2 1 1 1 1 1 1 6 9 10 9 9 8 6 5 4 2 2 2 2 3 4 5 5 5 7 8 9 11 11 10 10 10 8 8 7
0 1 2 2 1 1 1 1 1 1 1 1 1 1 3 8 11 12 11 10 9 9 7 6 4 3 2 2 1 1 2 4 5 5 6 6 8 9 10 9 9 9 8 8
0 0 1 1 1 2 1 0 1 1 2 1 1 1 4 6 8 9 10 10 10 9 8 6 5 5 4 3 2 1 1 2 3 4 4 6 7 7 8 8 8 8 8 9
0 0 1 1 1 2 1 1 1 1 1 1 1 1 4 5 6 8 9 10 10 10 8 7 7 6 5 5 4 3 2 1 1 2 3 4 5 6 7 7 7 8 9 10
1 1 0 2 2 1 0 1 1 1 1 1 1 0 3 6 8 9 10 10 10 10 9 8 8 7 6 6 5 4 3 3 2 1 1 3 4 5 6 6 7 8 9 9
2 1 2 1 2 1 2 2 2 2 1 1 2 3 4 8 10 11 11 11 10 10 10 9 8 8 7 6 5 5 4 3 2 1 0 2 3 4 5 5 6 7 8 9
1 1 1 2 3 3 3 4 3 3 3 2 2 4 6 8 8 9 10 10 10 10 11 10 9 8 8 7 6 5 5 4 3 1 0 1 1 2 4 4 5 6 7 8
1 1 1 1 1 2 4 5 4 4 4 4 4 4 4 6 7 8 9 9 10 10 11 11 10 10 9 8 7 6 5 5 3 1 1 1 2 2 3 4 6 6 7 7
2 2 1 1 3 4 3 3 4 3 2 3 4 3 5 6 8 8 8 9 9 10 11 11 11 10 9 9 8 6 5 4 3 1 1 0 2 3 3 4 5 6 7 7
3 3 1 1 2 3 1 1 2 3 3 3 3 4 5 6 7 6 6 8 9 11 11 11 10 10 9 9 8 6 4 3 2 1 0 1 2 3 4 4 5 5 6 7
1 2 2 1 2 4 2 3 2 3 4 3 4 5 5 6 5 3 6 9 10 10 10 10 10 9 9 9 8 6 5 3 2 2 1 1 2 4 5 5 5 5 6 6
2 2 2 2 3 4 2 4 2 2 4 3 2 3 4 5 4 4 8 10 10 10 9 9 9 9 8 8 7 6 5 4 3 3 2 1 2 4 5 5 5 4 5 5
4 4 5 5 4 5 2 4 4 4 1 3 2 3 3 4 5 7 9 9 9 9 9 9 8 7 8 8 6 5 5 5 5 3 2 1 2 3 4 4 5 5 5 5
7 7 6 6 6 5 6 6 6 2 2 2 2 3 5 6 7 7 8 8 9 9 9 9 8 8 7 7 6 6 5 6 4 3 1 1 2 2 3 5 5 6 6 6
8 6 4 7 5 1 7 5 3 2 2 2 3 4 5 6 7 7 8 8 8 8 8 8 8 8 7 7 6 6 7 6 4 2 1 1 2 2 4 5 6 6 6 5
6 4 4 5 7 6 6 6 4 3 3 2 2 3 4 5 6 7 7 7 7 7 7 7 7 7 7 7 6 6 6 5 3 2 1 1 2 2 3 3 4 5 5 5
6 8 6 7 5 4 7 9 7 4 3 2 2 3 4 5 6 6 6 7 7 7 6 6 6 6 7 6 6 6 6 4 2 1 1 1 2 2 3 3 3 4 4 5
8 9 9 7 7 6 5 8 8 6 4 4 3 3 3 4 5 6 6 6 6 6 6 5 6 6 6 6 6 6 6 4 2 1 1 1 1 2 2 2 1 1 2 3
Wind_Direction
340 264 293 280 263 273 254 253 267 283 289 268 261 272 281 286 265 252 243 238 240 243 235 216 212 209 204 199 192 191 194 187 181 184 183 189 188 188 191 194 195 195 196 194
165 340 324 311 283 241 232 250 287 303 300 268 272 278 280 272 262 257 250 244 241 246 235 216 211 208 204 199 192 191 196 193 189 192 188 192 189 188 191 192 195 197 197 195
117 355 331 171 90 212 286 274 292 308 317 247 266 271 264 270 259 257 251 251 255 251 245 224 209 209 195 200 200 198 196 199 197 194 187 180 187 181 188 193 195 197 196 195
2 331 311 113 332 293 303 318 280 291 293 272 264 264 271 274 267 270 271 271 274 272 254 230 212 210 204 209 209 202 200 205 202 194 192 189 200 200 201 196 195 194 198 198
29 346 357 339 316 286 297 316 287 286 280 278 266 240 282 304 282 307 303 291 285 279 269 242 224 215 212 210 208 202 198 202 201 197 196 198 209 210 202 196 196 195 196 200
328 312 314 315 308 278 292 298 273 215 217 232 278 249 310 346 307 312 315 312 311 295 289 276 254 227 219 214 205 201 197 206 204 204 199 200 206 207 203 199 199 199 198 199
27 62 350 312 315 61 335 308 269 179 190 344 20 257 321 359 342 325 322 328 339 339 340 335 264 244 226 220 205 205 202 208 212 210 208 206 207 209 211 205 205 203 199 200
1 43 9 348 329 320 340 324 331 326 330 10 237 260 360 2 354 346 342 347 355 358 358 353 306 254 233 224 207 204 207 214 211 213 214 214 213 214 216 211 205 203 204 201
340 358 10 344 326 308 310 327 323 304 305 278 241 280 360 9 12 11 10 11 7 1 355 349 340 294 264 236 218 204 213 217 210 214 212 211 210 212 213 210 205 203 202 195
280 281 340 340 251 43 330 317 262 274 291 243 270 300 344 358 360 3 9 9 4 2 3 359 354 350 0 347 314 175 205 217 215 215 213 214 211 210 210 206 201 195 192 184
145 257 349 8 2 351 18 11 307 296 308 289 265 29 19 353 354 359 4 4 0 359 1 2 1 2 14 18 20 42 164 214 217 220 217 212 203 200 201 197 196 188 181 178
129 273 295 302 341 326 310 328 302 289 302 297 292 1 39 16 7 7 6 4 3 3 3 7 9 12 20 22 23 21 19 4 300 241 216 198 188 187 189 190 191 182 178 176
160 188 269 161 157 89 345 327 272 283 267 247 248 247 28 10 8 10 6 4 5 8 12 13 14 12 12 13 15 17 14 357 337 302 205 190 181 179 185 184 181 178 171 167
171 179 270 307 347 321 286 296 277 228 234 244 246 285 332 349 354 358 359 359 4 10 14 13 10 6 2 3 5 6 4 355 339 324 184 174 179 177 174 171 167 168 166 165
186 187 241 291 290 269 269 272 261 232 241 246 281 295 319 337 342 347 352 356 4 8 8 7 4 0 356 354 355 357 354 352 347 349 45 145 148 148 146 152 158 160 163 161
139 159 184 284 296 289 277 276 257 253 248 248 276 293 332 335 340 351 356 358 1 2 360 357 357 356 353 349 346 346 348 345 340 338 15 92 143 149 155 158 155 151 150 149
158 162 193 239 316 288 271 263 222 211 222 240 262 293 326 330 340 343 346 350 353 354 351 350 350 349 345 342 338 334 335 338 338 337 1 124 167 161 162 160 158 154 152 149
162 161 178 284 303 247 69 73 212 221 248 247 270 303 315 317 317 326 343 351 347 345 343 342 341 338 337 336 335 333 331 332 338 341 310 193 178 166 159 161 158 155 153 154
190 182 181 217 262 267 235 202 205 229 258 238 263 301 319 321 305 313 358 348 338 334 334 335 335 331 332 337 335 332 331 333 334 329 298 234 191 178 169 169 164 158 153 151
134 187 202 201 241 245 167 150 162 209 247 189 230 290 319 325 304 319 342 336 334 333 333 335 335 335 338 340 335 329 327 326 323 316 304 267 205 191 182 174 163 156 151 150
173 184 204 216 242 262 169 153 167 210 252 155 215 261 287 290 291 309 321 326 330 329 331 335 335 336 338 339 337 328 326 323 320 314 299 244 204 192 180 166 159 152 149 150
189 185 195 196 220 241 154 164 200 221 99 191 232 259 274 285 297 308 313 319 325 328 331 334 333 334 336 342 340 330 325 321 318 308 279 220 188 170 168 162 158 159 160 161
210 208 202 208 220 91 169 190 179 158 194 226 253 273 278 287 298 306 310 315 319 324 327 329 329 328 334 342 341 333 326 326 320 302 276 216 177 171 172 172 169 167 171 174
209 200 216 241 244 224 209 205 194 195 210 232 256 275 281 288 297 303 307 312 317 320 322 325 325 324 328 335 336 333 328 325 314 296 275 207 185 178 175 178 180 181 186 188
194 179 206 237 239 222 219 212 203 198 211 232 265 284 285 288 295 301 304 309 312 315 317 320 319 318 321 329 335 339 335 326 316 305 283 220 199 189 184 190 199 203 207 204
191 189 194 217 202 194 200 193 189 194 212 228 253 282 293 291 296 303 303 306 310 313 319 318 319 317 318 327 334 338 336 325 315 307 291 250 210 196 192 192 207 219 227 227
Height
1488 1486 1483 1481 1482 1480 1478 1476 1473 1473 1473 1472 1469 1466 1463 1464 1465 1464 1464 1465 1466 1467 1468 1469 1470 1471 1474 1477 1481 1484 1488 1492 1496 1501 1504 1507 1511 1515 1519 1523 1527 1531 1534 1537
1486 1485 1485 1484 1483 1481 1478 1477 1474 1471 1472 1471 1468 1465 1462 1463 1462 1463 1463 1464 1464 1465 1465 1466 1468 1470 1472 1474 1478 1482 1486 1489 1493 1497 1501 1505 1509 1513 1516 1520 1524 1527 1531 1534
1485 1486 1486 1484 1482 1480 1478 1477 1476 1475 1473 1469 1468 1463 1461 1461 1461 1462 1462 1462 1463 1463 1464 1465 1466 1469 1471 1473 1476 1480 1483 1486 1490 1493 1497 1501 1505 1509 1513 1516 1520 1523 1527 1530
1486 1487 1486 1483 1482 1481 1478 1478 1478 1476 1474 1470 1469 1463 1457 1458 1459 1460 1460 1460 1461 1462 1463 1464 1465 1467 1468 1471 1474 1477 1480 1483 1486 1488 1492 1496 1499 1503 1507 1511 1515 1519 1523 1526
1486 1487 1485 1483 1483 1482 1480 1480 1478 1476 1474 1472 1468 1466 1459 1458 1459 1458 1459 1460 1460 1462 1462 1463 1464 1465 1467 1469 1471 1474 1477 1479 1481 1484 1488 1492 1496 1499 1503 1507 1511 1514 1518 1521
1488 1489 1488 1486 1485 1484 1482 1480 1477 1476 1473 1472 1469 1465 1460 1460 1460 1459 1459 1459 1460 1460 1461 1461 1462 1463 1465 1467 1469 1472 1474 1476 1478 1481 1484 1488 1492 1495 1499 1502 1505 1509 1512 1515
1486 1487 1488 1487 1484 1483 1482 1479 1473 1470 1468 1466 1469 1466 1463 1463 1463 1462 1461 1460 1460 1460 1459 1460 1460 1461 1463 1465 1466 1468 1470 1473 1475 1478 1481 1484 1487 1491 1494 1497 1500 1504 1507 1509
1485 1484 1488 1487 1486 1483 1482 1482 1477 1471 1465 1464 1468 1465 1463 1465 1465 1464 1461 1460 1459 1459 1459 1459 1460 1460 1461 1463 1464 1465 1467 1470 1472 1474 1477 1480 1482 1486 1490 1493 1496 1498 1501 1504
1486 1486 1488 1488 1488 1486 1483 1482 1483 1480 1476 1471 1465 1464 1463 1465 1464 1463 1461 1460 1460 1459 1459 1458 1459 1459 1460 1460 1461 1462 1464 1466 1468 1471 1473 1476 1478 1481 1484 1488 1490 1493 1497 1500
1490 1490 1488 1489 1488 1488 1486 1484 1482 1480 1474 1466 1464 1463 1464 1466 1467 1465 1463 1462 1461 1459 1458 1457 1458 1458 1457 1458 1458 1460 1462 1464 1466 1468 1469 1471 1474 1476 1480 1482 1485 1488 1491 1494
1492 1491 1489 1488 1487 1486 1487 1486 1484 1480 1477 1470 1465 1467 1471 1472 1472 1469 1467 1465 1463 1460 1459 1458 1457 1456 1456 1457 1457 1458 1460 1462 1463 1465 1466 1468 1470 1473 1475 1477 1480 1483 1486 1489
1493 1491 1488 1489 1490 1490 1488 1487 1486 1482 1480 1477 1471 1475 1475 1475 1474 1472 1470 1467 1465 1462 1460 1458 1457 1456 1456 1456 1456 1457 1458 1459 1461 1462 1463 1464 1466 1469 1471 1473 1476 1478 1481 1484
1492 1492 1486 1484 1489 1491 1489 1488 1487 1486 1484 1478 1474 1476 1476 1475 1474 1473 1471 1469 1466 1463 1461 1459 1458 1457 1456 1456 1456 1456 1457 1458 1459 1459 1460 1461 1463 1465 1467 1469 1472 1474 1477 1479
1492 1491 1489 1483 1483 1488 1489 1488 1487 1487 1482 1478 1476 1475 1476 1476 1475 1474 1473 1470 1467 1464 1462 1461 1459 1458 1457 1456 1456 1456 1456 1457 1457 1458 1458 1459 1460 1462 1464 1466 1468 1470 1472 1475
1492 1491 1492 1491 1490 1490 1488 1487 1486 1486 1483 1480 1478 1478 1478 1479 1478 1476 1474 1471 1468 1466 1463 1462 1460 1458 1457 1456 1455 1455 1455 1455 1455 1455 1455 1456 1457 1459 1461 1463 1465 1467 1469 1471
1493 1493 1493 1492 1491 1490 1488 1485 1484 1484 1483 1482 1480 1480 1481 1481 1479 1477 1474 1472 1469 1467 1465 1462 1460 1459 1457 1456 1455 1454 1454 1453 1453 1453 1453 1453 1455 1456 1458 1460 1462 1464 1466 1468
1492 1493 1491 1485 1490 1487 1482 1482 1483 1483 1483 1483 1481 1481 1481 1480 1479 1478 1475 1473 1471 1468 1466 1463 1461 1459 1457 1456 1454 1453 1453 1452 1451 1451 1451 1451 1452 1454 1455 1457 1459 1461 1462 1464
1493 1492 1491 1487 1488 1486 1480 1484 1484 1483 1483 1483 1482 1482 1482 1481 1479 1477 1476 1474 1471 1468 1466 1463 1461 1458 1456 1455 1453 1452 1451 1450 1449 1449 1449 1449 1450 1451 1453 1454 1456 1457 1459 1461
1494 1492 1490 1487 1483 1478 1481 1483 1484 1483 1481 1482 1482 1481 1481 1480 1477 1475 1474 1473 1471 1468 1465 1463 1460 1458 1455 1453 1452 1450 1449 1448 1447 1447 1447 1447 1448 1449 1450 1451 1453 1455 1456 1458
1495 1494 1491 1489 1484 1476 1474 1481 1483 1485 1479 1480 1481 1481 1480 1479 1475 1474 1473 1471 1469 1467 1464 1462 1459 1457 1454 1452 1450 1449 1448 1447 1446 1445 1445 1445 1445 1446 1448 1449 1451 1452 1454 1456
1491 1492 1490 1487 1483 1472 1477 1481 1483 1481 1475 1479 1479 1480 1480 1479 1477 1476 1472 1470 1467 1465 1462 1460 1457 1455 1453 1451 1449 1448 1446 1445 1445 1444 1443 1443 1444 1445 1446 1447 1449 1450 1451 1453
1481 1482 1484 1482 1481 1475 1477 1479 1478 1475 1477 1477 1478 1478 1478 1476 1475 1473 1470 1468 1465 1463 1460 1458 1455 1453 1451 1449 1448 1446 1445 1443 1443 1442 1442 1441 1442 1443 1444 1445 1446 1448 1449 1451
1479 1476 1473 1474 1471 1472 1473 1474 1475 1475 1475 1476 1476 1475 1475 1474 1472 1470 1468 1466 1463 1461 1458 1456 1454 1452 1450 1448 1446 1444 1443 1441 1441 1440 1440 1440 1440 1441 1442 1443 1444 1445 1447 1448
1476 1478 1476 1474 1469 1471 1472 1472 1472 1473 1473 1473 1473 1472 1472 1471 1469 1468 1465 1463 1461 1459 1457 1454 1452 1450 1448 1447 1445 1442 1441 1439 1438 1438 1438 1438 1438 1439 1440 1441 1442 1443 1444 1445
1467 1473 1471 1469 1467 1468 1468 1468 1469 1470 1470 1471 1470 1470 1469 1468 1466 1465 1463 1461 1459 1457 1455 1453 1451 1449 1447 1445 1443 1441 1439 1438 1437 1436 1436 1435 1436 1436 1437 1438 1439 1440 1441 1443
1462 1463 1463 1458 1459 1461 1462 1463 1465 1467 1467 1468 1468 1467 1466 1465 1463 1462 1460 1458 1456 1454 1452 1450 1448 1446 1444 1443 1441 1439 1438 1436 1435 1434 1433 1433 1433 1434 1434 1435 1436 1437 1438 1439